STARLINK-35099, 65735

Orbit data source: Space-Track

STARLINK-35099, 65735 is a payload satellite owned by SpaceX/Seattle (US) in LEO that was launched on Thu, 25 Sep 2025 UTC via an FALCON 9 launch vehicle from the Air Force Eastern Test Range (AFETR). Payload-class satellites include a variety of spacecraft equipped with specific instruments for various scientific and technological missions. These include communications satellites like Starlink; space stations such as the ISS; scientific satellites like the Hubble; Earth observation satellites from companies like Planet Labs, Umbra, and HawkEye 360; GPS; miniature CubeSats for education and research; and military/defense satellites.

Loading next visibility...
Identifier
65735, 2025-216B
Orbit
LEO
Country
Flag of USUS
Related business
Manufacturer
SpaceX/Seattle
Mission
Operational Commercial Communications
Bus & Motor
STARLINK V2MO, Unknown motor
Mass
575 kg wet, ~530 kg dry
Launch date (UTC)
2025-09-25 (9 months ago)
Launch vehicle
FALCON 9
Launch site
Air Force Eastern Test Range (AFETR)
Object type
Payload
Rocket body
Debris
Shape & HBR
Box + 2 Pan, 17.7 m
Radar Cross Section
36.964 m², Large (>1 m²)

Expand to show TLE details & history
Last TLE update: 11 hours ago

TLE from 11 hours ago
0 STARLINK-35099
1 65735U 25216B   26171.40630579  .00010273  00000-0  35845-3 0  9994
2 65735  53.1565 215.5228 0000947  81.5929 278.5179 15.30204006 42244
Epoch: 2026-06-20T09:45Z
TLE epoch observation values (Epoch: 2026-06-20T09:45:04.820Z)
Latitude
-0.00001°
Longitude
160.63132°
Altitude
476.006 km
Speed
7.629 km/s
True Right ascension
14h 22m 05s
True Declination
0° 00' 00"
Sunlit
Object was in full shadow at epoch
Visualization orbit readout
Latitude
Unknown
Longitude
Unknown
Altitude
Unknown
Speed
Unknown
Apparent Right ascension
Unknown
Apparent Declination
Unknown
Sunlit
N/A
Visualization observer readout
Local Sidereal Time
07:12:31
Azimuth
Unknown
Elevation
Unknown
Doppler factor
Unknown
Orbital elements
Apogee altitude
476.109 km
Perigee altitude
474.811 km
Semi-major axis
6,853.597 km
Eccentricity
0.00009
Inclination
53.1565°
RAAN
215.5228°
Arg. of periapsis
81.5929°
True anomaly
278.50717°
Mean anomaly
278.5179°
Eccentric anomaly
278.51253°
Mean motion
3.8253 °/min
Orbital period
94.11 mins
BSTAR
0.00035845
Loading maneuver chart data...
Computing Atmospheric mass density...
Loading historical data...
Loading historical data...
Loading historical data...
Loading historical data...
Loading historical data...
Loading historical data...
Loading historical data...

Documentation

Showing up to 5 results
|